Location: Newark
(59.4564°N, 26.6917°E)
Time: 23:49:43
(UTC+00:00)

SR - Pass Details

Date: 01 December 2019
Orbit: 573 x 882 km, 66.7° (Epoch: 12 December)

Event Time Altitude Azimuth Distance (km) Brightness Sun altitude
Rises 17:34:17 0° 310° (NW) 3,482 ? -30.3°
Reaches altitude 10° 17:36:47 10° 309° (NW) 2,551 ? -30.6°
Enters shadow 17:42:06 67° 273° (W) 954 ? -31.3°
Maximum altitude 17:42:44 74° 226° (SW) 917 - -31.4°
Drops below altitude 10° 17:48:33 10° 142° (SE) 2,488 - -32.1°
Sets 17:50:58 0° 141° (SE) 3,390 - -32.4°
